Home   Weather   USA   Thomasville   Past weeks
Flag for USA

Past Weather in Thomasville, North Carolina, USA — Yesterday and Last 2 Weeks

Currently: 55 °F. Clear. (Weather station: Davidson County Airport, USA). See more current weather

Past Weather in Thomasville — Graph

°F

Thomasville Temperature Yesterday

Maximum temperature yesterday: 70 °F (at 4:55 pm)
Minimum temperature yesterday: 49 °F (at 4:35 am)
Average temperature yesterday: 59 °F

High & Low Weather Summary for the Past Weeks

 TemperatureHumidityPressure
High84 °F (Apr 7, 3:35 pm)100% (Apr 5, 4:35 am)30.17 "Hg (Apr 5, 4:35 am)
Low39 °F (Apr 16, 6:15 am)18% (Apr 12, 5:35 pm)29.53 "Hg (Apr 11, 4:55 pm)
Average62 °F61%29.90 "Hg
* Reported Apr 4 8:15 pm — Apr 19 8:55 pm, Thomasville. Weather by CustomWeather, © 2021

Note: Actual official high and low records may vary slightly from our data, if they occured in-between our weather recording intervals... More about our weather records

Thomasville Weather History for the Previous 24 Hours

Scroll right to see more
 ConditionsComfort  
Time TempWeatherWind HumidityBarometerVisibility
8:55 pm
Mon, Apr 19
56 °FClear.No wind62%29.93 "Hg10 mi
8:15 pm59 °FClear.No wind55%29.91 "Hg10 mi
7:55 pm61 °FSunny.No wind51%29.91 "Hg10 mi
7:35 pm62 °FSunny.No wind49%29.90 "Hg10 mi
6:55 pm67 °FScattered clouds.No wind39%29.89 "Hg10 mi
6:35 pm67 °FSunny.3 mph40%29.89 "Hg10 mi
6:15 pm66 °FSunny.No wind38%29.89 "Hg10 mi
5:55 pm67 °FSunny.5 mph36%29.88 "Hg10 mi
5:35 pm69 °FScattered clouds.7 mph36%29.87 "Hg10 mi
5:15 pm68 °FSunny.No wind38%29.87 "Hg10 mi
4:55 pm66 °FSunny.3 mph40%29.87 "Hg10 mi
4:35 pm67 °FScattered clouds.No wind39%29.87 "Hg10 mi
4:15 pm66 °FScattered clouds.3 mph38%29.87 "Hg10 mi
3:55 pm66 °FPartly sunny.5 mph37%29.87 "Hg10 mi
2:55 pm66 °FSunny.No wind36%29.88 "Hg10 mi
2:35 pm65 °FSunny.7 mph35%29.88 "Hg10 mi
2:15 pm64 °FSunny.5 mph39%29.88 "Hg10 mi
1:55 pm64 °FSunny.5 mph40%29.88 "Hg10 mi
1:35 pm63 °FSunny.7 mph43%29.88 "Hg10 mi
1:15 pm62 °FSunny.7 mph47%29.89 "Hg10 mi
12:55 pm60 °FSunny.No wind50%29.89 "Hg10 mi
12:35 pm59 °FSunny.5 mph54%29.90 "Hg10 mi
12:15 pm57 °FScattered clouds.No wind59%29.90 "Hg10 mi
11:55 am58 °FMore clouds than sun.6 mph56%29.91 "Hg10 mi
11:35 am58 °FPartly sunny.3 mph55%29.90 "Hg10 mi
11:15 am58 °FPartly sunny.5 mph55%29.90 "Hg10 mi
10:55 am59 °FBroken clouds.3 mph56%29.89 "Hg10 mi
10:35 am58 °FScattered clouds.3 mph57%29.89 "Hg10 mi
10:15 am58 °FScattered clouds.9 mph57%29.89 "Hg10 mi
9:55 am57 °FSunny.6 mph60%29.89 "Hg10 mi
9:35 am56 °FSunny.5 mph62%29.88 "Hg10 mi
9:15 am54 °FScattered clouds.5 mph64%29.88 "Hg10 mi
8:55 am54 °FScattered clouds.5 mph67%29.88 "Hg10 mi
8:35 am53 °FScattered clouds.5 mph70%29.88 "Hg10 mi
8:15 am53 °FSunny.5 mph73%29.87 "Hg10 mi
7:55 am52 °FScattered clouds.3 mph73%29.87 "Hg10 mi
7:35 am51 °FScattered clouds.No wind75%29.88 "Hg10 mi
7:15 am51 °FScattered clouds.3 mph75%29.86 "Hg10 mi
6:55 am51 °FScattered clouds.3 mph74%29.86 "Hg10 mi
6:35 am52 °FPassing clouds.5 mph75%29.85 "Hg10 mi
6:15 am52 °FPartly cloudy.5 mph74%29.85 "Hg10 mi
5:55 am52 °FPassing clouds.3 mph74%29.84 "Hg10 mi
5:35 am53 °FClear.5 mph74%29.84 "Hg10 mi
5:15 am54 °FPartly cloudy.6 mph74%29.84 "Hg10 mi
4:55 am54 °FPassing clouds.5 mph77%29.84 "Hg10 mi
4:35 am54 °FOvercast.No wind76%29.84 "Hg10 mi
3:55 am53 °FPassing clouds.No wind76%29.83 "Hg10 mi
3:35 am53 °FPassing clouds.No wind74%29.83 "Hg10 mi
3:15 am53 °FPartly cloudy.No wind74%29.83 "Hg10 mi
2:55 am54 °FPassing clouds.No wind72%29.83 "Hg10 mi
2:35 am53 °FPassing clouds.No wind79%29.83 "Hg10 mi
2:15 am52 °FPassing clouds.5 mph79%29.84 "Hg10 mi
1:55 am51 °FPassing clouds.6 mph92%29.84 "Hg10 mi
1:35 am50 °FPassing clouds.No wind92%29.84 "Hg10 mi
1:15 am49 °FPassing clouds.No wind97%29.84 "Hg10 mi
12:55 am48 °FPassing clouds.No wind100%29.84 "Hg10 mi
12:35 am49 °FClear.No wind94%29.85 "Hg10 mi
12:15 am48 °FClear.No wind99%29.85 "Hg10 mi
11:55 pm
Sun, Apr 18
50 °FClear.No wind87%29.85 "Hg10 mi
11:35 pm51 °FClear.No wind77%29.85 "Hg10 mi
11:15 pm51 °FPassing clouds.No wind78%29.86 "Hg10 mi
10:55 pm52 °FPassing clouds.No wind73%29.86 "Hg10 mi
10:35 pm53 °FClear.No wind72%29.87 "Hg10 mi
10:15 pm54 °FClear.No wind70%29.87 "Hg10 mi
Weather by CustomWeather, © 2021

See weather overview